星链-36630(STARLINK-36630)

导读

STARLINK-36630是美国SpaceX公司星链星座的低轨通信卫星,于2026年2月7日发射入轨,归属第二代或第三代星链组网序列。 作为全球最大卫星互联网星座的组成部分,它延续星链技术特性,搭载相控阵天线与星间激光链路,可提供高速低延迟宽带服务,助力扩展全球网络覆盖,服务偏远地区、海事航空及应急通信等场景,推动星链二代系统部署进程。

基本信息
目录编号:
67703
目录名称:
STARLINK-36630
国际标识:
2026-025L
轨道中心:
EARTH
卫星名称:
星链-36630
卫星全名:
星链-36630(STARLINK-36630)
卫星状态:
在轨 (已飞行126 天)
发射日期:
2026-02-07 UTC
国别 :
美国 (US)
星等 :
--
轨道信息
数据来源 国际轨道数据
星历时间: 2026-06-13T03:59:01+0800
7小时前
查看轨道信息
半长轴: 6843.665km
偏心率: 0.0002313
轨道倾角: 97.285°
近地点辐角 82.111°
升交点赤经 275.180°
平近点角 278.039°
近地点: 463.945km
远地点: 467.111km
周期: 93.906分钟
每日圈数: 15.334502
详细信息
固有亮度:
5
最大亮度:
2.5
卫星平台:
Starlink V1.0
覆盖范围:
全球
运营商:
太空探索技术公司
运营商所在国:
美国
制造商(研发单位):
太空探索技术公司
制造商所在国:
美国
使用方式:
暂无
卫星简介
Starlink 计划是 SpaceX 推出的全球卫星互联网项目,通过发射低轨道卫星,为全球尤其是偏远地区提供高速、低延迟的互联网服务。自 2019 年起,Starlink 已部署数千颗卫星,旨在缩小全球数字鸿沟,推动互联网普及。该项目还为军事、航空等行业提供通信支持,带来广泛经济效益。
2D轨道图
3D轨道图
轨道高度分析图
轨道倾角分析图
轨道综合分析图
查看轨道综合分析图